TimeEDT,TemperatureF,Dew PointF,Humidity,Sea Level PressureIn,VisibilityMPH,Wind Direction,Wind SpeedMPH,Gust SpeedMPH,PrecipitationIn,Events,Conditions,WindDirDegrees,DateUTC
12:54 AM,73.4,64.4,73,30.11,10.0,SSE,5.8,-,N/A,,Mostly Cloudy,150,2014-08-09 04:54:00
1:54 AM,71.1,66.0,84,30.12,10.0,South,4.6,-,N/A,,Mostly Cloudy,190,2014-08-09 05:54:00
2:54 AM,72.0,66.0,81,30.11,10.0,South,4.6,-,N/A,,Overcast,170,2014-08-09 06:54:00
3:54 AM,72.0,66.0,81,30.11,10.0,SSW,5.8,-,N/A,,Overcast,200,2014-08-09 07:54:00
4:54 AM,73.0,66.0,79,30.11,10.0,WSW,3.5,-,N/A,,Overcast,240,2014-08-09 08:54:00
5:54 AM,72.0,64.0,76,30.12,10.0,WSW,3.5,-,N/A,,Mostly Cloudy,240,2014-08-09 09:54:00
6:54 AM,69.1,64.0,84,30.12,9.0,Calm,Calm,-,N/A,,Mostly Cloudy,0,2014-08-09 10:54:00
7:54 AM,72.0,64.0,76,30.13,10.0,Calm,Calm,-,N/A,,Mostly Cloudy,0,2014-08-09 11:54:00
8:54 AM,75.0,63.0,66,30.15,10.0,South,3.5,-,N/A,,Overcast,190,2014-08-09 12:54:00
9:54 AM,75.0,63.0,66,30.15,10.0,SW,5.8,-,N/A,,Overcast,220,2014-08-09 13:54:00
10:54 AM,75.9,63.0,64,30.16,10.0,SSW,6.9,-,N/A,,Overcast,210,2014-08-09 14:54:00
11:54 AM,75.9,61.0,60,30.16,10.0,SW,5.8,-,N/A,,Overcast,220,2014-08-09 15:54:00
1:54 PM,78.1,62.1,58,30.15,10.0,South,8.1,-,N/A,,Overcast,190,2014-08-09 17:54:00
2:54 PM,78.1,63.0,60,30.14,10.0,WSW,6.9,-,N/A,,Overcast,240,2014-08-09 18:54:00
3:54 PM,75.9,63.0,64,30.13,10.0,SSW,8.1,-,N/A,,Overcast,200,2014-08-09 19:54:00
4:54 PM,77.0,64.0,64,30.11,9.0,Variable,4.6,-,N/A,,Mostly Cloudy,0,2014-08-09 20:54:00
5:54 PM,77.0,64.0,64,30.11,8.0,Calm,Calm,-,N/A,,Mostly Cloudy,0,2014-08-09 21:54:00
6:54 PM,75.0,64.0,69,30.10,8.0,South,4.6,-,N/A,,Mostly Cloudy,190,2014-08-09 22:54:00
7:54 PM,73.0,64.0,73,30.12,8.0,SSW,4.6,-,N/A,,Mostly Cloudy,200,2014-08-09 23:54:00
8:54 PM,70.0,64.0,81,30.13,9.0,SW,3.5,-,N/A,,Mostly Cloudy,230,2014-08-10 00:54:00
9:54 PM,70.0,64.9,84,30.14,10.0,SSW,4.6,-,N/A,,Overcast,200,2014-08-10 01:54:00
10:54 PM,70.0,63.0,78,30.14,10.0,Calm,Calm,-,N/A,,Mostly Cloudy,0,2014-08-10 02:54:00
11:54 PM,69.1,63.0,81,30.16,9.0,Calm,Calm,-,N/A,,Mostly Cloudy,0,2014-08-10 03:54:00